Terminal Aerodrome Forecast
Issued by NWS Chicago, IL

Home | Current Version | Previous Version | Text Only | Print | Product List | Glossary On
Versions: 1 2 3 4 5 6 7 8 9 10 11 12 13 14 15 16 17 18 19 20 21 22 23 24 25 26 27 28 29 30 31 32 33
000
FTUS43 KLOT 301600 AAB
TAFRFD
TAF AMD
KRFD 301601Z 3016/3112 32007KT P6SM FEW045
     FM301900 34008KT P6SM VCSH BKN045
     FM310200 25003KT P6SM SCT060=

USA.gov is the U.S. government's official web portal to all federal, state and local government web resources and services.